This is the latest recevied weather packets stored in our database for station/object OK2ILA-13. If no packets are shown the sender has not sent any weather packets the latest 10 day(s).
| Time | Temp. | Humidity | Pressure | Rain* | Wind** | Luminosity | Snow |
|---|---|---|---|---|---|---|---|
| 1777316428 | 7.22° C | 37% | 1020.7 hPa | - | - | - | - |
| 1777315828 | 7.78° C | 37% | 1020.9 hPa | - | - | - | - |
| 1777315228 | 7.78° C | 37% | 1020.7 hPa | - | - | - | - |
| 1777314629 | 7.78° C | 37% | 1020.7 hPa | - | - | - | - |
| 1777314030 | 7.78° C | 37% | 1020.7 hPa | - | - | - | - |
| 1777313430 | 8.33° C | 36% | 1020.5 hPa | - | - | - | - |
| 1777312831 | 8.33° C | 37% | 1020.5 hPa | - | - | - | - |
| 1777312231 | 8.89° C | 36% | 1020.4 hPa | - | - | - | - |
| 1777311631 | 8.89° C | 36% | 1020.4 hPa | - | - | - | - |
| 1777311031 | 9.44° C | 35% | 1020.3 hPa | - | - | - | - |
| 1777310431 | 9.44° C | 36% | 1020.4 hPa | - | - | - | - |
| 1777309831 | 10° C | 36% | 1020.4 hPa | - | - | - | - |
| 1777309231 | 10° C | 36% | 1020.4 hPa | - | - | - | - |
| 1777308631 | 10.56° C | 36% | 1020.3 hPa | - | - | - | - |
| 1777308031 | 10.56° C | 36% | 1020.2 hPa | - | - | - | - |
| 1777307432 | 10.56° C | 34% | 1020.3 hPa | - | - | - | - |
| 1777306832 | 11.11° C | 34% | 1020.3 hPa | - | - | - | - |
| 1777306233 | 11.67° C | 35% | 1020.3 hPa | - | - | - | - |
| 1777305633 | 11.67° C | 35% | 1020.4 hPa | - | - | - | - |
| 1777304434 | 12.22° C | 36% | 1020.4 hPa | - | - | - | - |
| 1777304121 | 11.67° C | 35% | 1020.5 hPa | - | - | - | - |
| 1777303520 | 12.22° C | 35% | 1020.5 hPa | - | - | - | - |
| 1777302921 | 12.22° C | 34% | 1020.5 hPa | - | - | - | - |
| 1777302321 | 12.22° C | 34% | 1020.6 hPa | - | - | - | - |
| 1777301722 | 12.22° C | 35% | 1020.5 hPa | - | - | - | - |
* Rain since midnight (hover to see other rain measurements)
** Current wind speed in m/s (hover to see current wind gust speed)